Regional Weather Roundup
Issued by NWS

Home | Current Version | Previous Version | Text Only | Print | Product List | Glossary On
Versions: 1 2 3 4 5 6 7 8 9 10 11 12 13 14 15 16 17 18 19 20 21 22 23 24 25 26 27 28 29 30 31 32 33 34 35 36 37 38 39 40 41 42 43 44 45 46 47 48 49 50
000
ASUS42 KFFC 120703
RWRGA
WEATHER ROUNDUP FOR GEORGIA
NATIONAL WEATHER SERVICE PEACHTREE CITY GA
300 AM EDT SAT JUL 12 2014

NOTE: "FAIR" INDICATES FEW OR NO CLOUDS BELOW 12,000 FEET WITH NO
SIGNIFICANT WEATHER AND/OR OBSTRUCTIONS TO VISIBILITY.

* = USE WITH CAUTION. THE STATIONS MARKED WITH AN ASTERISK MAY NOT
REPORT WEATHER SUCH AS PRECIPITATION, FOG, OR THUNDER AND ARE NOT
QUALITY CONTROLLED BY NWS.

THE REMARK "TC" DENOTES TEMPERATURE READING IN DEGREES CELSIUS.

GAZ001>058-120800-
NORTH GEORGIA

CITY           SKY/WX    TMP DP  RH WIND       PRES   REMARKS
ATLANTA        PTCLDY    72  69  90 E3        30.17F
ATHENS         PTCLDY    71  69  93 CALM      30.18F
CHAMBLEE       CLEAR     70  68  93 E3        30.18F
PEACHTREE CITY CLEAR     70  67  90 SE3       30.18S
ROME           CLEAR     71  68  90 SE7       30.16S
WEST ATLANTA   CLEAR     72  69  90 CALM      30.16F
GAINESVILLE    MOCLDY    70  68  93 NE8       30.23F
CARTERSVILLE   CLEAR     72  69  90 E3        30.18F


CITY           SKY/WX    TMP DP  RH WIND       PRES   REMARKS
DALTON*        PTCLDY    72  70  94 CALM      30.17F
MARIETTA       CLEAR     71  69  94 NE2       30.18F
$$

GAZ059>098-102>109-120800-
CENTRAL GEORGIA

CITY           SKY/WX    TMP DP  RH WIND       PRES   REMARKS
AUGUSTA-BUSH   FOG       72  71  97 CALM      30.17S VSB 1/4
AUGUSTA-DANIEL CLEAR     76  72  87 SE3       30.18F
COLUMBUS       CLEAR     73  66  78 E5        30.13F
MACON          CLEAR     71  71 100 NE7       30.16R
ROBINS AFB     PTCLDY    72  71  96 N5        30.15R


CITY           SKY/WX    TMP DP  RH WIND       PRES   REMARKS
LAGRANGE*      CLEAR     76  75  95 E3        30.14F
SYLVANIA*      CLEAR     73  73 100 CALM      30.17F FOG
MILLEDGEVILLE* CLEAR     73  73 100 CALM      30.17F
$$

GAZ099>101-110>166-120800-
SOUTH GEORGIA

CITY           SKY/WX    TMP DP  RH WIND       PRES   REMARKS
SAVANNAH       MOCLDY    77  75  93 N3        30.15F
VALDOSTA       PTCLDY    76  71  85 SE6       30.12F
ALMA           CLOUDY    73  72  96 CALM      30.13F
ST SIMONS      CLOUDY    77  74  90 SW7       30.14S
FT STEWART     CLOUDY    74  73  98 CALM      30.13F
ALBANY         PTCLDY    75  72  90 CALM      30.14F
HUNTER AFB     CLOUDY    76  76 100 E5        30.12F
MOODY AFB      MOCLDY    73  71  95 SE3       30.13F
BRUNSWICK      CLOUDY    75  72  88 CALM      30.15S


CITY           SKY/WX    TMP DP  RH WIND       PRES   REMARKS
BAINBRIDGE*    PTCLDY    79  77  94 CALM      30.12F
MOULTRIE*      PTCLDY    73  73 100 SE5       30.13S
VIDALIA*         N/A     73  72  94 CALM      30.15S
WAYCROSS*      CLOUDY    77  76  98 CALM      30.13F
DOUGLAS*       MOCLDY    73  72  94 E3        30.15S
$$


USA.gov is the U.S. government's official web portal to all federal, state and local government web resources and services.